Flag for Bermuda Weather past 2 weeks in Hamilton, Bermuda

Now
84 °F

Scattered clouds.


Feels Like: 91 °F
Forecast: 79 / 84 °F
Wind: 15 mph from Southwest

Location: Bermuda

Current Time: Jul 28, 2014 at 4:57:23 PM

Latest Report: Jul 28, 2014 at 3:55 PM


Visibility: N/A

Pressure: 30.15 "Hg

Humidity: 70%

Dew point: 73 °F

Location of HamiltonLocation

Historic Weather in Hamilton — Graph

°F

Hamilton temperature yesterday

Maximum temperature yesterday: 84 °F (at 10:55 AM)
Minimum temperature yesterday: 77 °F (at 1:55 PM)
Average temperature yesterday: 79 °F

Past Weeks' High & Low Weather Summary

 TemperatureHumidityPressure
High84 °F (Jul 13, 2:55 PM)89% (Jul 16, 2:55 AM)30.30 "Hg (Jul 16, 2:55 AM)
Low73 °F (Jul 17, 11:55 PM)55% (Jul 20, 2:55 PM)30.09 "Hg (Jul 16, 1:55 AM)
Average80 °F77%30.19 "Hg
* Reported Jul 13 2:55 PM — Jul 28 2:55 PM, Hamilton, Weather by CustomWeather, © 2014

Note: Actual official high and low records may vary slightly from our data, if they occured in-between our weather recording intervals... More about our weather records

Advertising

Hamilton weather history for previous 24 hours

 ConditionsComfort  
Time TempWeatherWind HumidityBarometerVisibility
2:55 PM
Jul 28
84 °FScattered clouds.16 mph74%30.15 "HgN/A
1:55 PM84 °FScattered clouds.17 mph70%30.15 "HgN/A
12:55 PM84 °FPassing clouds.17 mph74%30.15 "HgN/A
11:55 AM82 °FScattered clouds.17 mph74%30.15 "HgN/A
10:55 AM82 °FScattered clouds.16 mph74%30.15 "HgN/A
9:55 AM82 °FScattered clouds.15 mph74%30.15 "HgN/A
8:55 AM81 °FScattered clouds.16 mph79%30.12 "HgN/A
7:55 AM81 °FScattered clouds.16 mph79%30.12 "HgN/A
6:55 AM79 °FPassing clouds.16 mph84%30.12 "HgN/A
5:55 AM79 °FPassing clouds.21 mph84%30.12 "HgN/A
4:55 AM79 °FPassing clouds.22 mph84%30.09 "HgN/A
3:55 AM79 °FPassing clouds.21 mph84%30.09 "HgN/A
2:55 AM79 °FPassing clouds.20 mph79%30.09 "HgN/A
1:55 AM79 °FPartly cloudy.17 mph79%30.12 "HgN/A
12:55 AM79 °FPartly cloudy.18 mph79%30.12 "HgN/A
11:55 PM
Jul 27
79 °FPartly cloudy.18 mph84%30.12 "HgN/A
10:55 PM79 °FScattered showers. Partly cloudy.16 mph84%30.15 "HgN/A
9:55 PM77 °FScattered showers. Partly cloudy.18 mph83%30.15 "HgN/A
8:55 PM77 °FLight rain. Broken clouds.17 mph83%30.12 "HgN/A
7:55 PM77 °FScattered showers. Broken clouds.21 mph83%30.12 "HgN/A
6:55 PM77 °FScattered showers. Broken clouds.20 mph89%30.12 "HgN/A
5:55 PM77 °FThunderstorms. Broken clouds.15 mph89%30.15 "HgN/A
4:55 PM77 °FLight rain. Mostly cloudy.12 mph89%30.12 "HgN/A
Weather by CustomWeather, © 2014

See weather overviewHow to use our weather pages